Adana Incirlik AFB, Turkey

11:49 AM +03 on January 21, 2018 (GMT +0300)
Incirlik Air Base

Weather History for LTAG - March, 2013

Change the Weather History Date:

Friday, March 1, 2013

  Actual Average Record
Temperature  
Mean Temperature 50 °F -  
Max Temperature 61 °F 67 °F 80 °F (2016)
Min Temperature 39 °F 48 °F 32 °F (2012)
Degree Days  
Heating Degree Days 15    
Moisture  
Dew Point 41 °F    
Average Humidity 75    
Maximum Humidity 100    
Minimum Humidity 21    
Precipitation  
Precipitation 0.00 in - - ()
Sea Level Pressure  
Sea Level Pressure 29.92 in    
Wind  
Wind Speed 5 mph ()    
Max Wind Speed 13 mph    
Max Gust Speed -    
Visibility 6.3 miles    
Events      
Averages and records for this station are not official NWS values.
T = Trace of Precipitation, MM = Missing Value Source: Averaged Metar Reports

Daily Weather History Graph

Daily Weather History Graph

Search for Another Location

Airport or City:

Trip Planner

Search our weather history database for the weather conditions in past years. The results will help you decide how hot, cold, wet, or windy it might be!

Date:

Astronomy

Mar. 01, 2013 Rise Set
Actual Time 6:09 AM EET 5:32 PM EET
Civil Twilight 5:43 AM EET 5:58 PM EET
Nautical Twilight 5:13 AM EET 6:28 PM EET
Astronomical Twilight 4:43 AM EET 6:58 PM EET
Moon 9:35 PM EET (3/1) 7:49 AM EET (3/1)
Length of Visible Light 12h 15m
Length of Day
11h 23m
Waning Gibbous, 86% of the Moon is Illuminated
Mar 1
Waning Gibbous
Mar 4
Last Quarter
Mar 11
New
Mar 19
First Quarter
Mar 27
Full

Hourly Weather History & Observations

Time (EET) Temp. Windchill Dew Point Humidity Pressure Visibility Wind Dir Wind Speed Gust Speed Precip Events Conditions
12:20 AM 44.6 °F 43.1 °F 44.6 °F 100% 29.86 in 6.2 mi NE 3.5 mph - N/A   Mostly Cloudy
12:50 AM 46.4 °F 45.2 °F 44.6 °F 93% 29.86 in 6.2 mi ENE 3.5 mph - N/A   Mostly Cloudy
1:20 AM 44.6 °F - 44.6 °F 100% 29.86 in 6.2 mi Calm Calm - N/A   Mostly Cloudy
1:50 AM 46.4 °F 45.2 °F 44.6 °F 93% 29.86 in 6.2 mi NE 3.5 mph - N/A   Mostly Cloudy
2:00 AM 46 °F - 45 °F 93% 29.87 in 6 mi NNE 4.6 mph - -   Partly Cloudy
2:20 AM 42.8 °F 39.3 °F 41.0 °F 93% 29.86 in 6.2 mi North 5.8 mph - N/A   Mostly Cloudy
2:50 AM 42.8 °F 39.3 °F 41.0 °F 93% 29.86 in 6.2 mi NW 5.8 mph - N/A   Mostly Cloudy
3:20 AM 42.8 °F 40.1 °F 41.0 °F 93% 29.86 in 6.2 mi NW 4.6 mph - N/A   Mostly Cloudy
3:50 AM 42.8 °F 38.0 °F 41.0 °F 93% 29.89 in 6.2 mi North 8.1 mph - N/A   Mostly Cloudy
4:20 AM 41.0 °F 35.2 °F 41.0 °F 100% 29.89 in 6.2 mi North 9.2 mph - N/A   Mostly Cloudy
4:50 AM 41.0 °F 35.2 °F 41.0 °F 100% 29.89 in 6.2 mi North 9.2 mph - N/A   Mostly Cloudy
5:20 AM 41.0 °F 37.1 °F 39.2 °F 93% 29.89 in 6.2 mi NNE 5.8 mph - N/A   Mostly Cloudy
5:50 AM 39.2 °F 34.2 °F 39.2 °F 100% 29.89 in 6.2 mi North 6.9 mph - N/A   Mostly Cloudy
6:20 AM 41.0 °F 37.1 °F 41.0 °F 100% 29.89 in 6.2 mi NE 5.8 mph - N/A   Scattered Clouds
6:50 AM 41.0 °F - 41.0 °F 100% 29.92 in 6.2 mi ESE 2.3 mph - N/A   Mostly Cloudy
7:20 AM 44.6 °F 42.2 °F 44.6 °F 100% 29.92 in 6.2 mi NNE 4.6 mph - N/A   Mostly Cloudy
7:50 AM 46.4 °F 44.3 °F 46.4 °F 100% 29.92 in 6.2 mi North 4.6 mph - N/A   Mostly Cloudy
8:00 AM 46 °F - 46 °F 97% 29.94 in 12 mi North 4.6 mph - -   Partly Cloudy
8:20 AM 48.2 °F - 48.2 °F 100% 29.92 in 6.2 mi NE 4.6 mph - N/A   Mostly Cloudy
8:50 AM 51.8 °F - 50.0 °F 94% 29.92 in 6.2 mi NNE 4.6 mph - N/A   Mostly Cloudy
9:20 AM 53.6 °F - 50.0 °F 88% 29.92 in 6.2 mi NW 4.6 mph - N/A   Mostly Cloudy
9:50 AM 55.4 °F - 41.0 °F 58% 29.92 in 6.2 mi NW 8.1 mph - N/A   Mostly Cloudy
10:20 AM 55.4 °F - 42.8 °F 63% 29.95 in 6.2 mi NNW 10.4 mph - N/A   Mostly Cloudy
10:50 AM 59.0 °F - 39.2 °F 48% 29.95 in 6.2 mi NNW 12.7 mph - N/A   Mostly Cloudy
11:20 AM 57.2 °F - 37.4 °F 48% 29.95 in 6.2 mi North 12.7 mph - N/A   Mostly Cloudy
11:50 AM 59.0 °F - 37.4 °F 45% 29.92 in 6.2 mi North 8.1 mph - N/A   Mostly Cloudy
12:20 PM 60.8 °F - 37.4 °F 42% 29.92 in 6.2 mi North 9.2 mph - N/A   Mostly Cloudy
12:50 PM 60.8 °F - 37.4 °F 42% 29.92 in 6.2 mi North 10.4 mph - N/A   Mostly Cloudy
1:20 PM 60.8 °F - 33.8 °F 36% 29.92 in 6.2 mi NNW 3.5 mph - N/A   Mostly Cloudy
1:50 PM 62.6 °F - 32.0 °F 32% 29.92 in 6.2 mi NW 2.3 mph - N/A   Mostly Cloudy
2:00 PM 62 °F - 33 °F 21% 29.92 in 6 mi NW 2.3 mph - -   Partly Cloudy
2:20 PM 60.8 °F - 32.0 °F 34% 29.92 in 6.2 mi Variable 2.3 mph - N/A   Mostly Cloudy
2:50 PM 60.8 °F - 33.8 °F 36% 29.92 in 6.2 mi SE 4.6 mph - N/A   Mostly Cloudy
3:20 PM 60.8 °F - 33.8 °F 36% 29.92 in 6.2 mi South 5.8 mph - N/A   Mostly Cloudy
3:50 PM 60.8 °F - 35.6 °F 39% 29.92 in 6.2 mi SSE 4.6 mph - N/A   Scattered Clouds
4:20 PM 59.0 °F - 33.8 °F 39% 29.92 in 6.2 mi South 3.5 mph - N/A   Scattered Clouds
4:50 PM 59.0 °F - 37.4 °F 45% 29.92 in 6.2 mi South 2.3 mph - N/A   Scattered Clouds
5:20 PM 57.2 °F - 37.4 °F 48% 29.92 in 6.2 mi SW 4.6 mph - N/A   Scattered Clouds
5:50 PM 57.2 °F - 37.4 °F 48% 29.92 in 6.2 mi West 4.6 mph - N/A   Scattered Clouds
6:20 PM 55.4 °F - 37.4 °F 51% 29.95 in 6.2 mi NNW 4.6 mph - N/A   Scattered Clouds
6:50 PM 53.6 °F - 39.2 °F 58% 29.95 in 6.2 mi NW 4.6 mph - N/A   Scattered Clouds
7:20 PM 51.8 °F - 42.8 °F 71% 29.95 in 6.2 mi NNE 3.5 mph - N/A   Scattered Clouds
7:50 PM 50.0 °F - 46.4 °F 87% 29.95 in 6.2 mi North 5.8 mph - N/A   Scattered Clouds
8:00 PM 49 °F - 46 °F 85% 29.97 in 6 mi North 5.8 mph - -   Scattered Clouds
8:20 PM 48.2 °F - 46.4 °F 93% 29.95 in 6.2 mi NNE 6.9 mph - N/A   Scattered Clouds
8:50 PM 48.2 °F - 44.6 °F 87% 29.98 in 6.2 mi ENE 6.9 mph - N/A   Scattered Clouds
9:20 PM 48.2 °F - 44.6 °F 87% 29.98 in 6.2 mi North 6.9 mph - N/A   Scattered Clouds
9:50 PM 46.4 °F 44.3 °F 44.6 °F 93% 29.98 in - NE 4.6 mph - N/A   Clear
10:20 PM 46.4 °F 42.9 °F 44.6 °F 93% 29.98 in - North 6.9 mph - N/A   Clear
10:50 PM 46.4 °F 44.3 °F 42.8 °F 87% 29.98 in - NNE 4.6 mph - N/A   Clear
11:20 PM 42.8 °F 37.5 °F 42.8 °F 100% 29.98 in - NE 9.2 mph - N/A   Clear
11:50 PM 42.8 °F 38.6 °F 42.8 °F 100% 29.98 in - NE 6.9 mph - N/A   Clear